Location: Ferchesar
(52.6477°N, 12.4298°E)
Time: 21:40:57
(UTC+02:00)

A-11 Canister half - Pass Details

Date: 07 March 2021
Orbit: 1525 x 1683 km, 47.3° (Epoch: 11 April)

Event Time Altitude Azimuth Distance (km) Brightness Sun altitude
Exits shadow 02:35:46 27° 144° (SE) 2,691 10.1 -35.2°
Maximum altitude 02:36:23 27° 138° (SE) 2,679 10.1 -35.1°
Drops below altitude 10° 02:43:53 10° 85° (E) 3,754 11.5 -34.3°
Sets 02:47:28 0° 74° (ENE) 4,721 12.4 -33.9°
